STARLINK-36909, 67946

Orbit data source: Space-Track

STARLINK-36909, 67946 is a payload satellite owned by SpaceX/Seattle (US) in LEO that was launched on Tue, 24 Feb 2026 UTC via an FALCON 9 launch vehicle from the Air Force Eastern Test Range (AFETR). Payload-class satellites include a variety of spacecraft equipped with specific instruments for various scientific and technological missions. These include communications satellites like Starlink; space stations such as the ISS; scientific satellites like the Hubble; Earth observation satellites from companies like Planet Labs, Umbra, and HawkEye 360; GPS; miniature CubeSats for education and research; and military/defense satellites.

Loading next visibility...
Identifier
67946, 2026-037Q
Orbit
LEO
Country
Flag of USUS
Related business
Manufacturer
SpaceX/Seattle
Mission
Operational Commercial Communications
Bus & Motor
STARLINK V2MO, Unknown motor
Mass
575 kg wet, ~530 kg dry
Launch date (UTC)
2026-02-24 (4 months ago)
Launch vehicle
FALCON 9
Launch site
Air Force Eastern Test Range (AFETR)
Object type
Payload
Rocket body
Debris
Shape & HBR
Box + 2 Pan, 17.7 m
Radar Cross Section
36.964 m², Large (>1 m²)

Expand to show TLE details & history
Last TLE update: 9 hours ago

TLE from 9 hours ago
0 STARLINK-36909
1 67946U 26037Q   26171.47325493  .00021164  00000-0  77648-3 0  9993
2 67946  43.0014 329.9356 0001108 275.9390  84.1335 15.27575977 19063
Epoch: 2026-06-20T11:21Z
TLE epoch observation values (Epoch: 2026-06-20T11:21:29.225Z)
Latitude
-0.00006°
Longitude
-109.12361°
Altitude
482.759 km
Speed
7.626 km/s
True Right ascension
21h 59m 44s
True Declination
0° 00' 00"
Sunlit
Object was in full shadow at epoch
Visualization orbit readout
Latitude
Unknown
Longitude
Unknown
Altitude
Unknown
Speed
Unknown
Apparent Right ascension
Unknown
Apparent Declination
Unknown
Sunlit
N/A
Visualization observer readout
Local Sidereal Time
07:12:35
Azimuth
Unknown
Elevation
Unknown
Doppler factor
Unknown
Orbital elements
Apogee altitude
485.767 km
Perigee altitude
484.246 km
Semi-major axis
6,863.143 km
Eccentricity
0.00011
Inclination
43.0014°
RAAN
329.9356°
Arg. of periapsis
275.939°
True anomaly
84.14613°
Mean anomaly
84.1335°
Eccentric anomaly
84.13982°
Mean motion
3.81732 °/min
Orbital period
94.31 mins
BSTAR
0.00077648
Loading maneuver chart data...
Computing Atmospheric mass density...
Loading historical data...
Loading historical data...
Loading historical data...
Loading historical data...
Loading historical data...
Loading historical data...
Loading historical data...

Documentation

Showing up to 5 results
|